Theta_e
342 341 337 336 335 336 337 335 331 324 325 329 330 330 333 336 336 338 337 325 326 323 323 324 326 328 329 329 330 330 331 331 331 332 332 332 332 331
339 337 337 339 340 337 336 335 333 329 325 330 330 330 333 337 335 338 337 329 323 323 323 323 322 323 323 324 325 326 327 327 327 327 329 329 329 329
340 341 340 339 336 335 334 333 331 330 325 327 328 330 328 332 333 334 333 336 334 322 321 320 320 319 320 322 322 323 324 324 323 324 326 326 326 327
338 338 337 335 336 335 333 334 333 332 329 327 325 326 327 328 328 330 329 334 336 324 320 318 316 316 317 318 318 319 318 318 319 321 322 322 324 325
333 335 337 336 335 334 334 333 331 331 331 327 324 326 325 326 325 327 328 329 329 322 317 316 315 315 316 317 317 315 312 312 313 314 317 319 320 322
335 339 336 336 335 335 333 333 331 330 329 326 324 322 323 325 325 321 324 328 326 326 321 319 317 316 316 316 316 316 312 310 310 310 311 311 313 315
338 337 338 334 327 330 332 332 332 329 326 323 322 320 320 320 321 324 323 324 324 325 325 325 324 324 321 318 321 319 312 310 308 308 308 307 307 309
336 336 336 325 323 315 316 318 328 329 325 322 320 320 321 322 323 322 321 322 320 326 324 322 326 323 324 326 316 312 310 308 308 307 307 306 305 305
336 336 335 334 328 332 312 312 314 313 320 331 323 320 321 323 324 322 324 324 322 323 325 319 322 322 324 321 311 310 307 306 306 306 306 305 304 301
336 336 337 336 333 332 328 328 330 331 330 330 333 327 326 326 329 327 326 325 324 325 328 317 320 320 322 322 309 308 306 305 306 305 305 304 303 300
334 335 335 334 307 305 329 329 330 327 309 305 309 308 306 309 320 327 324 320 316 320 328 322 320 317 320 321 317 307 305 304 304 305 304 304 302 302
329 329 308 324 300 303 326 329 325 324 326 327 325 315 315 316 308 329 325 319 317 317 327 322 319 321 319 323 324 322 324 305 304 303 303 303 302 322
328 326 324 299 297 300 310 327 324 324 319 329 328 325 325 323 325 327 330 326 323 323 324 328 322 321 326 323 323 323 328 326 326 320 301 301 301 308
323 323 314 297 297 299 312 298 301 312 326 323 322 321 322 323 325 329 331 331 333 330 329 329 327 325 324 321 317 324 323 329 327 326 325 316 300 300
327 311 296 295 296 301 298 300 302 325 322 320 318 319 321 324 326 327 328 326 327 327 326 328 326 324 323 321 317 320 322 323 318 319 324 323 322 323
305 308 305 308 305 308 312 316 326 324 322 320 320 321 322 322 322 323 320 322 323 324 324 327 328 328 322 319 321 322 323 320 322 321 320 320 323 326
315 320 322 319 319 320 322 322 323 324 322 322 322 321 320 320 320 321 321 322 319 318 319 322 326 326 322 324 315 316 318 318 320 323 323 323 325 328
318 318 318 318 318 318 319 320 322 317 322 321 321 320 318 319 318 320 323 321 319 317 319 323 324 323 322 319 317 322 323 321 322 324 326 323 324 326
316 318 317 318 318 318 319 319 318 320 322 320 321 320 320 318 314 315 316 318 317 316 320 321 321 316 311 316 326 309 323 325 326 325 327 326 325 327
317 315 318 319 319 319 318 318 319 320 320 320 321 321 321 317 316 315 316 320 322 316 315 315 316 317 320 319 321 325 300 326 326 325 325 327 325 308
317 316 321 321 320 319 319 321 320 322 322 323 324 320 320 319 317 317 316 302 305 316 316 318 321 302 326 327 323 324 329 299 314 326 326 323 323 325
318 320 319 319 320 322 323 322 321 319 321 320 319 319 319 319 317 318 318 319 321 322 322 325 327 327 325 324 323 324 326 329 310 300 300 304 318 317
312 313 313 315 319 324 323 322 321 324 318 319 319 319 321 319 321 322 325 325 325 324 325 325 327 328 325 324 315 320 322 322 319 319 318 300 300 301
Wind_Speed
9 8 6 6 5 6 4 5 5 6 5 4 4 1 2 3 3 4 5 6 7 8 9 10 11 11 11 10 12 14 16 16 16 19 20 22 21 19
6 8 7 6 6 5 5 4 4 5 4 1 2 1 1 1 3 3 3 4 6 7 8 8 10 9 10 10 14 18 18 16 14 12 14 16 17 16
9 10 9 7 5 5 5 4 4 4 5 3 2 3 1 2 2 3 4 3 5 4 6 8 10 12 12 13 15 14 15 16 15 11 11 11 13 14
10 10 9 6 8 6 5 5 4 4 4 5 3 2 2 3 3 5 4 3 4 4 5 7 9 13 16 16 15 13 12 12 11 12 10 10 12 12
9 8 10 10 8 6 5 5 5 4 4 4 5 2 2 1 4 5 6 6 5 7 5 4 10 15 17 17 18 16 10 11 9 7 9 11 11 11
9 10 10 10 10 9 7 7 6 5 5 5 5 4 2 2 3 3 5 4 4 4 6 5 6 10 14 14 14 17 14 12 10 9 9 10 10 10
9 9 9 9 7 7 7 8 8 5 5 6 6 4 3 4 4 3 5 5 3 2 3 2 3 4 5 9 11 13 13 12 11 10 10 10 9 9
9 9 8 8 7 8 7 9 9 9 8 6 4 7 7 5 4 6 7 7 4 1 2 2 2 3 3 5 9 13 11 11 11 10 10 9 9 8
8 8 7 6 7 9 6 6 6 5 5 8 9 8 8 9 8 8 8 7 5 3 4 2 2 3 2 4 10 11 11 11 9 9 9 9 9 9
6 7 8 9 9 9 11 10 9 8 6 5 7 8 6 8 10 7 7 6 6 3 2 2 1 2 1 3 5 9 11 11 10 10 9 9 8 8
5 6 7 8 9 9 11 11 9 6 6 7 6 10 9 6 7 8 8 8 3 2 2 3 3 2 1 2 3 5 6 7 7 7 8 9 8 6
5 5 3 5 11 11 7 10 10 7 8 9 8 8 8 6 5 7 7 7 5 3 4 3 4 4 3 2 5 5 6 8 7 7 8 9 8 7
7 5 4 8 10 9 9 7 7 9 6 8 7 7 8 6 5 3 5 7 7 3 6 4 5 4 3 4 5 7 8 7 8 9 11 11 11 11
6 5 5 7 9 10 9 11 12 9 6 6 6 7 7 7 6 6 6 3 1 1 8 6 4 7 6 3 3 5 6 7 6 8 8 7 13 13
7 9 10 11 11 10 14 14 12 7 6 6 5 5 5 5 6 6 5 4 4 3 5 6 3 4 2 4 2 3 3 6 7 8 10 9 9 9
12 6 8 10 11 10 8 6 5 5 7 7 6 5 5 6 5 4 3 4 4 4 3 4 4 5 4 3 4 5 4 2 4 7 7 8 9 9
10 7 8 7 7 6 6 5 5 6 6 5 6 6 5 5 3 4 3 4 3 3 4 5 5 4 3 5 4 5 6 6 6 6 7 8 9 10
5 6 6 7 6 6 6 6 5 4 5 5 5 5 5 5 5 3 4 4 3 3 4 3 5 4 3 6 12 8 8 6 6 9 10 9 10 9
6 6 7 6 6 6 5 5 5 4 6 5 5 6 6 4 4 3 2 4 4 3 4 2 3 2 2 6 0 15 8 6 6 6 7 8 9 9
5 5 6 7 6 6 5 4 5 5 4 4 6 5 5 5 4 4 5 6 3 2 1 2 2 5 7 5 6 5 19 8 6 6 7 6 8 11
6 4 6 7 5 5 5 6 5 5 5 4 4 4 5 4 4 3 2 2 2 4 5 6 9 8 6 4 6 7 3 19 10 8 7 8 8 7
6 6 6 5 5 4 4 4 4 5 5 4 4 3 3 4 2 3 5 6 7 5 5 4 4 5 6 7 9 9 6 2 7 12 10 8 6 6
6 5 5 5 4 4 3 4 2 4 4 4 4 4 4 4 3 6 4 4 5 5 5 6 5 5 6 7 5 6 8 6 6 4 6 9 9 4
Wind_Direction
202 200 200 204 200 212 218 228 244 229 214 170 197 243 226 196 125 193 196 144 175 166 166 169 170 175 171 157 146 132 124 134 146 158 166 163 168 164
189 186 194 192 189 197 207 207 225 257 234 204 130 162 233 196 150 197 123 142 129 145 163 164 164 163 140 143 133 136 137 148 150 147 157 164 158 161
184 188 185 169 179 188 186 178 188 209 239 129 123 152 76 128 128 176 139 184 127 114 163 150 164 138 133 140 134 134 143 148 152 155 157 164 149 153
174 181 172 171 176 178 184 189 196 191 214 164 146 151 107 130 120 135 122 127 121 123 136 152 140 134 137 137 133 142 154 147 151 156 166 161 150 153
161 176 176 175 176 178 189 186 175 186 183 158 144 121 105 135 96 88 107 98 78 96 93 116 143 147 150 149 155 141 143 146 153 158 171 159 155 161
171 184 177 182 185 180 184 179 175 184 176 164 149 139 120 112 117 118 114 108 88 78 66 78 143 152 152 151 153 144 158 163 170 180 172 165 166 167
178 181 181 188 177 188 185 182 177 175 170 172 158 144 140 151 161 150 125 109 79 99 100 79 114 133 134 145 148 162 165 165 177 180 177 173 177 174
178 182 177 171 186 185 189 183 183 165 168 165 157 165 159 154 145 156 146 152 132 45 84 77 105 112 133 153 154 155 160 164 178 177 180 178 186 190
178 181 180 182 188 189 153 151 127 66 191 177 169 167 156 168 164 163 175 168 145 144 119 79 30 100 112 131 153 159 167 173 183 187 184 188 193 198
188 190 191 186 193 177 164 170 173 175 171 192 188 168 149 169 171 181 150 117 99 114 195 98 58 66 91 115 161 171 172 177 191 193 194 199 207 213
159 176 182 178 144 163 170 165 159 152 83 49 84 108 123 144 157 155 159 155 128 159 175 125 130 94 98 153 148 168 179 196 204 205 207 211 216 224
129 136 43 161 152 152 146 162 162 160 156 144 132 107 132 143 183 196 169 159 131 171 145 126 141 150 153 176 190 184 205 198 204 216 221 221 208 241
157 146 131 134 145 154 142 168 168 150 143 147 138 134 135 149 176 174 206 167 188 165 156 182 167 184 199 145 187 202 215 195 216 208 217 223 211 226
136 124 122 131 134 136 146 125 128 140 148 141 147 140 148 162 173 176 168 209 34 299 147 204 180 199 203 177 195 192 232 232 234 224 237 219 209 218
124 106 113 111 113 92 120 133 160 145 144 144 132 137 161 154 141 138 131 114 80 78 157 198 206 187 206 207 200 251 235 196 207 227 231 226 244 245
105 113 107 88 77 114 133 159 136 145 148 142 142 137 141 153 159 155 150 174 181 160 160 180 224 201 193 228 268 242 245 256 186 221 225 237 244 244
131 134 126 120 127 129 128 127 137 145 139 141 150 149 149 154 152 164 158 168 194 182 178 188 202 201 251 221 218 233 249 231 229 234 219 247 250 249
122 129 126 131 133 133 133 132 128 125 134 142 145 149 156 169 161 164 188 181 189 181 246 202 176 204 222 236 219 245 241 235 232 231 240 252 263 260
112 126 128 133 136 133 134 134 135 134 146 154 159 163 162 152 152 162 160 203 185 211 218 192 185 182 225 264 191 223 256 253 245 237 237 247 263 274
118 124 133 134 141 140 138 140 140 144 151 158 170 160 152 154 159 173 199 210 203 177 199 199 213 224 251 290 303 306 207 263 264 272 276 267 258 265
128 127 131 131 137 136 160 142 162 168 159 168 148 148 164 185 160 194 219 190 200 212 213 212 217 219 269 273 257 260 253 209 256 293 305 295 283 278
127 138 132 134 147 141 139 127 144 165 162 154 152 159 168 178 168 218 196 215 210 234 239 262 210 230 241 257 277 290 295 23 195 241 252 243 303 309
71 76 72 66 44 96 134 131 144 133 140 161 163 174 181 192 209 230 233 230 252 256 256 266 257 249 269 281 309 320 326 15 6 347 92 91 114 152